Location: Alameda Elementary School
(35.1902°N, 106.6189°W)
Time: 11:10:38
(UTC+00:00)

Daily predictions for brighter satellites

Satellite Brightness Start Highest point End
(mag) Time Altitude Azimuth Time Altitude Azimuth Time Altitude Azimuth
STARLINK-1022 4.3 12:06:22 40° SSW 12:06:22 40° SSW 12:09:32 10° SSE
STARLINK-1112 3.5 12:06:16 67° NW 12:06:16 67° NW 12:10:18 10° NE
Cosmos 1500 Rocket 3.7 12:02:15 10° N 12:06:42 73° E 12:11:03 10° SSE
Cosmos 1869 3.4 12:02:48 10° S 12:06:48 73° E 12:10:46 10° N
H-2A R/B 2.7 12:04:51 10° N 12:09:10 53° WNW 12:09:11 53° WNW
Meteor 2-2 Rocket 4.4 12:04:29 10° S 12:10:30 83° E 12:16:33 10° N
STARLINK-1042 4.3 12:11:07 38° SSW 12:11:07 38° SSW 12:14:24 10° SSE
Aurora 2 Rocket 4.3 12:11:01 21° SSW 12:12:26 24° S 12:15:54 10° SE
STARLINK-1056 4.3 12:15:54 36° SW 12:15:54 36° SW 12:19:17 10° SSE
METEOR-M 4.3 12:10:13 10° NNE 12:15:34 73° ESE 12:20:53 10° S
Centaur D-1A AC-32 3.9 12:15:01 18° SSW 12:16:07 20° S 12:20:16 10° SE
Cosmos 614 Rocket 4.0 12:16:05 30° SW 12:18:17 51° WNW 12:23:22 10° N
Cosmos 1743 Rocket 3.4 12:14:40 10° NNW 12:18:59 71° W 12:23:17 10° S
Okean O Rocket 3.4 12:15:11 10° NNE 12:19:07 32° E 12:23:01 10° SSE
Cosmos 1190 Rocket 3.9 12:14:33 10° SSW 12:19:47 70° WNW 12:25:04 10° NNE
STARLINK-1054 4.4 12:20:41 33° SW 12:20:41 33° SW 12:24:09 10° SSE
Cosmos 1153 Rocket 4.3 12:14:26 10° NNW 12:20:32 68° W 12:26:35 10° S
Cosmos 1727 Rocket 4.2 12:21:20 10° SSW 12:27:12 44° W 12:33:05 10° N
Meteor PRIRODA 3.9 12:24:43 10° N 12:28:14 44° WNW 12:29:20 33° WSW
Cosmos 1943 Rocket 2.1 12:24:44 10° NNW 12:30:11 65° WSW 12:35:36 10° S
Cosmos 1633 3.0 12:28:25 10° N 12:32:02 63° E 12:35:37 10° SSE
IUS-17 SRM-1 3.8 12:33:07 19° SSW 12:34:01 23° S 12:37:17 10° ESE
SJ-12 3.9 12:31:48 10° N 12:35:52 58° WNW 12:39:55 10° SSW
Cosmos 676 Rocket 4.0 12:32:02 10° SSW 12:37:20 83° WNW 12:42:43 10° NNE
USA 116 4.3 12:34:38 10° SSE 12:37:46 46° ENE 12:40:46 10° N
ISS -0.7 12:36:29 10° SSE 12:38:28 15° SE 12:40:26 10° E
Cosmos 2173 Rocket 3.9 12:33:50 10° N 12:40:08 84° W 12:46:18 10° S
Cosmos 921 Rocket 3.0 12:37:29 10° NNW 12:41:55 86° ENE 12:46:12 10° SSE
STARLINK-1098 4.4 12:41:51 25° WNW 12:43:19 32° NW 12:46:59 10° NNE
COSMO-SKYMED 1 2.5 12:40:04 10° S 12:44:19 60° WSW 12:48:38 10° NNW
Helios 1A Rocket 4.3 12:41:32 10° NNE 12:45:28 42° E 12:49:22 10° S
Cosmos 1238 Rocket 3.8 12:39:57 10° N 12:45:49 75° E 12:50:39 10° SSE
Cosmos 2221 3.7 12:47:10 21° W 12:47:46 21° WNW 12:51:04 10° NNW
Cosmos 1862 4.0 12:45:35 10° N 12:49:29 57° E 12:53:23 10° SSE
FENGYUN 3A 3.8 12:46:24 10° N 12:51:37 50° WNW 12:56:50 10° SW
Cosmos 2100 Rocket 4.0 12:50:03 10° NNW 12:56:05 56° W 13:02:03 10° SSW
Cosmos 1484 Rocket 4.2 12:53:19 10° NNW 12:56:12 20° WNW 12:58:45 12° WSW
Cosmos 1666 Rocket 4.4 12:52:04 10° N 12:56:25 55° E 13:00:43 10° SSE
Lacrosse 5 1.9 12:52:16 10° NW 12:57:18 66° SW 13:02:18 10° SSE
Cosmos 2369 Rocket 2.5 12:54:18 10° NW 12:59:44 46° WSW 13:05:08 10° S
NOAA 6 4.0 12:57:18 10° N 13:02:28 73° WNW 13:07:34 10° SSW
Milstar 3 4.4 12:50:39 14° W 13:03:22 45° SSW 13:11:37 10° SE
Cosmos 1943 4.1 12:59:08 10° WSW 13:03:52 27° WNW 13:08:38 10° N
Aureole 2 Rocket 2.9 13:02:29 10° NW 13:05:20 33° WSW 13:08:18 10° S
Cosmos 1459 Rocket 4.2 13:02:42 10° NNW 13:08:37 48° W 13:14:36 10° SSW
NOSS 3-3 (A) 3.8 13:05:01 10° SW 13:10:43 70° WNW 13:17:03 10° NNE
NOSS 3-3 (C) 3.8 13:05:05 10° SW 13:10:49 71° WNW 13:17:10 10° NNE
Cosmos 2061 Rocket 4.0 13:05:13 10° NNW 13:11:26 67° W 13:17:33 10° S
ALOS 3.2 13:07:55 10° NNW 13:11:44 25° WNW 13:15:31 10° SW
Cosmos 1656 Rocket 3.7 13:06:39 10° NNW 13:12:21 84° WSW 13:18:02 10° SSE
Cosmos 2263 4.4 13:09:30 10° NNW 13:14:55 48° WSW 13:20:17 10° S
Cosmos 1933 4.3 13:12:35 10° S 13:16:33 53° E 13:20:33 10° NNE
Cosmos 2123 Rocket 4.1 13:10:54 10° SSW 13:17:06 58° W 13:23:18 10° N
DELTA 2 R/B (1) 3.7 13:13:22 10° W 13:18:56 69° NNW 13:24:29 10° ENE
CZ-4B R/B 3.2 13:14:14 10° N 13:19:25 58° WNW 13:24:35 10° SSW
Cosmos 1725 Rocket 4.0 13:13:51 10° N 13:20:06 75° W 13:26:22 10° S
Atlas Centaur 2 4.0 13:16:29 10° SW 13:24:32 48° SSE 13:32:19 10° E
